TimeEST,TemperatureF,Dew PointF,Humidity,Sea Level PressureIn,VisibilityMPH,Wind Direction,Wind SpeedMPH,Gust SpeedMPH,PrecipitationIn,Events,Conditions,WindDirDegrees,DateUTC
12:55 AM,35.6,24.8,65,30.02,10.0,NE,3.5,-,N/A,,Clear,50,2013-03-05 05:55:00
1:15 AM,35.6,26.6,70,30.02,10.0,NE,3.5,-,N/A,,Clear,40,2013-03-05 06:15:00
1:35 AM,35.6,26.6,70,30.02,10.0,NE,3.5,-,N/A,,Clear,50,2013-03-05 06:35:00
1:55 AM,35.6,26.6,70,30.02,10.0,Calm,Calm,-,N/A,,Clear,0,2013-03-05 06:55:00
2:15 AM,35.6,26.6,70,30.01,10.0,NE,3.5,-,N/A,,Clear,40,2013-03-05 07:15:00
2:35 AM,35.6,26.6,70,30.01,10.0,ENE,3.5,-,N/A,,Clear,60,2013-03-05 07:35:00
2:55 AM,35.6,28.4,75,30.00,10.0,Variable,3.5,-,N/A,,Clear,0,2013-03-05 07:55:00
3:15 AM,35.6,28.4,75,30.00,10.0,Calm,Calm,-,N/A,,Clear,0,2013-03-05 08:15:00
3:35 AM,35.6,26.6,70,29.99,10.0,ENE,4.6,-,N/A,,Clear,60,2013-03-05 08:35:00
3:55 AM,35.6,26.6,70,29.99,10.0,ENE,4.6,-,N/A,,Clear,60,2013-03-05 08:55:00
4:15 AM,33.8,28.4,81,29.99,10.0,ENE,4.6,-,N/A,,Clear,60,2013-03-05 09:15:00
4:35 AM,33.8,28.4,81,29.98,10.0,ENE,3.5,-,N/A,,Mostly Cloudy,60,2013-03-05 09:35:00
4:55 AM,35.6,28.4,75,29.97,10.0,ENE,5.8,-,N/A,,Overcast,60,2013-03-05 09:55:00
5:15 AM,35.6,28.4,75,29.97,10.0,ENE,3.5,-,N/A,,Overcast,70,2013-03-05 10:15:00
5:35 AM,35.6,28.4,75,29.96,10.0,NE,4.6,-,N/A,,Mostly Cloudy,40,2013-03-05 10:35:00
5:55 AM,35.6,28.4,75,29.96,10.0,ENE,5.8,-,N/A,,Mostly Cloudy,70,2013-03-05 10:55:00
6:15 AM,35.6,28.4,75,29.97,10.0,NE,3.5,-,N/A,,Overcast,40,2013-03-05 11:15:00
6:35 AM,35.6,28.4,75,29.96,10.0,NE,3.5,-,N/A,,Light Drizzle,50,2013-03-05 11:35:00
6:55 AM,35.6,28.4,75,29.95,10.0,NE,4.6,-,N/A,,Overcast,40,2013-03-05 11:55:00
7:15 AM,37.4,28.4,70,29.95,10.0,NE,3.5,-,N/A,Rain,Light Rain,50,2013-03-05 12:15:00
7:35 AM,37.4,28.4,70,29.96,10.0,NE,3.5,-,N/A,Rain,Light Rain,40,2013-03-05 12:35:00
8:15 AM,35.6,32.0,87,29.98,5.0,East,3.5,-,N/A,Rain,Rain,90,2013-03-05 13:15:00
8:35 AM,35.6,32.0,87,29.98,4.0,Calm,Calm,-,N/A,Rain,Heavy Rain,0,2013-03-05 13:35:00
8:55 AM,35.6,33.8,93,29.98,7.0,ENE,4.6,-,N/A,Rain,Rain,70,2013-03-05 13:55:00
9:15 AM,35.6,33.8,93,29.97,5.0,East,3.5,-,N/A,Rain,Rain,80,2013-03-05 14:15:00
9:35 AM,35.6,35.6,100,29.95,8.0,East,6.9,-,N/A,Rain,Light Rain,80,2013-03-05 14:35:00
9:55 AM,35.6,35.6,100,29.95,7.0,East,3.5,-,N/A,Rain,Light Rain,90,2013-03-05 14:55:00
10:15 AM,37.4,35.6,93,29.94,5.0,NE,3.5,-,N/A,Rain,Rain,50,2013-03-05 15:15:00
10:35 AM,37.4,35.6,93,29.93,7.0,East,5.8,-,N/A,Rain,Light Rain,80,2013-03-05 15:35:00
10:55 AM,37.4,35.6,93,29.91,6.0,East,5.8,-,N/A,Rain,Light Rain,80,2013-03-05 15:55:00
11:15 AM,37.4,35.6,93,29.90,7.0,East,6.9,-,N/A,Rain,Light Rain,100,2013-03-05 16:15:00
11:35 AM,39.2,37.4,93,29.87,8.0,East,6.9,-,N/A,Rain,Light Rain,90,2013-03-05 16:35:00
11:55 AM,39.2,37.4,93,29.86,9.0,East,6.9,-,N/A,Rain,Light Rain,90,2013-03-05 16:55:00
12:15 PM,41.0,39.2,93,29.85,6.0,East,8.1,-,N/A,Rain,Light Rain,90,2013-03-05 17:15:00
12:35 PM,41.0,39.2,93,29.84,6.0,East,5.8,-,N/A,Rain,Light Rain,80,2013-03-05 17:35:00
12:55 PM,41.0,39.2,93,29.82,7.0,East,4.6,-,N/A,Rain,Light Rain,90,2013-03-05 17:55:00
1:15 PM,41.0,39.2,93,29.81,6.0,East,4.6,-,N/A,Rain,Light Rain,80,2013-03-05 18:15:00
1:35 PM,41.0,39.2,93,29.80,5.0,East,5.8,-,N/A,Rain,Light Rain,90,2013-03-05 18:35:00
1:55 PM,41.0,39.2,93,29.80,7.0,East,6.9,-,N/A,Rain,Heavy Rain,90,2013-03-05 18:55:00
2:15 PM,41.0,39.2,93,29.79,7.0,East,5.8,-,N/A,Rain,Heavy Rain,90,2013-03-05 19:15:00
2:35 PM,41.0,41.0,100,29.78,5.0,East,6.9,-,N/A,Rain,Heavy Rain,80,2013-03-05 19:35:00
2:55 PM,41.0,41.0,100,29.76,6.0,ENE,5.8,-,N/A,Rain,Heavy Rain,70,2013-03-05 19:55:00
3:15 PM,42.8,41.0,93,29.74,4.0,East,6.9,-,N/A,Rain,Rain,80,2013-03-05 20:15:00
3:35 PM,42.8,42.8,100,29.73,10.0,East,5.8,-,N/A,,Overcast,100,2013-03-05 20:35:00
3:55 PM,44.6,44.6,100,29.69,5.0,East,6.9,-,N/A,Rain,Light Rain,100,2013-03-05 20:55:00
4:15 PM,44.6,44.6,100,29.67,7.0,East,8.1,-,N/A,Rain,Rain,100,2013-03-05 21:15:00
4:35 PM,44.6,44.6,100,29.64,5.0,East,8.1,-,N/A,Rain,Light Rain,100,2013-03-05 21:35:00
4:55 PM,44.6,44.6,100,29.61,10.0,East,8.1,-,N/A,Rain,Light Rain,100,2013-03-05 21:55:00
5:15 PM,46.4,44.6,93,29.61,10.0,SE,8.1,-,N/A,,Overcast,130,2013-03-05 22:15:00
5:35 PM,46.4,44.6,93,29.64,6.0,Calm,Calm,-,N/A,Rain,Heavy Rain,0,2013-03-05 22:35:00
5:55 PM,44.6,44.6,100,29.65,6.0,Calm,Calm,-,N/A,Rain,Heavy Rain,0,2013-03-05 22:55:00
6:15 PM,44.6,44.6,100,29.68,6.0,Variable,5.8,-,N/A,Rain,Heavy Rain,0,2013-03-05 23:15:00
6:35 PM,46.4,44.6,93,29.69,7.0,WSW,9.2,-,N/A,Rain,Rain,240,2013-03-05 23:35:00
6:55 PM,46.4,42.8,87,29.67,7.0,Variable,4.6,-,N/A,Rain,Rain,0,2013-03-05 23:55:00
7:15 PM,44.6,42.8,93,29.63,10.0,NE,3.5,-,N/A,Rain,Light Rain,40,2013-03-06 00:15:00
7:35 PM,44.6,42.8,93,29.63,10.0,Calm,Calm,-,N/A,,Mostly Cloudy,0,2013-03-06 00:35:00
7:55 PM,44.6,42.8,93,29.61,10.0,Calm,Calm,-,N/A,,Overcast,0,2013-03-06 00:55:00
8:15 PM,44.6,42.8,93,29.61,9.0,Variable,3.5,-,N/A,Rain,Light Rain,0,2013-03-06 01:15:00
8:35 PM,44.6,42.8,93,29.62,9.0,West,20.7,27.6,N/A,,Light Drizzle,260,2013-03-06 01:35:00
8:55 PM,44.6,42.8,93,29.65,9.0,West,16.1,-,N/A,Rain,Light Rain,270,2013-03-06 01:55:00
9:15 PM,41.0,39.2,93,29.68,5.0,West,18.4,31.1,N/A,Rain,Rain,260,2013-03-06 02:15:00
9:35 PM,39.2,37.4,93,29.70,10.0,WSW,17.3,-,N/A,Rain,Light Rain,250,2013-03-06 02:35:00
9:55 PM,37.4,35.6,93,29.71,7.0,WSW,13.8,-,N/A,Rain,Light Rain,250,2013-03-06 02:55:00
10:15 PM,37.4,35.6,93,29.72,8.0,WSW,12.7,-,N/A,,Light Drizzle,250,2013-03-06 03:15:00
10:35 PM,37.4,33.8,87,29.73,10.0,WSW,10.4,-,N/A,,Overcast,250,2013-03-06 03:35:00
10:55 PM,35.6,32.0,87,29.73,10.0,WSW,15.0,-,N/A,Rain,Light Rain,240,2013-03-06 03:55:00
11:15 PM,33.8,30.2,87,29.74,10.0,WSW,10.4,-,N/A,Rain,Light Rain,250,2013-03-06 04:15:00
11:35 PM,33.8,28.4,81,29.74,10.0,WSW,12.7,-,N/A,Rain,Light Rain,250,2013-03-06 04:35:00
11:55 PM,32.0,28.4,87,29.74,10.0,West,11.5,-,N/A,Snow,Light Snow,270,2013-03-06 04:55:00